When you browse on this site, cookies collect data to enhance your experience and personalize the content and advertising you see.
Visit our Privacy Policy to learn more. By continuing to use the site, you agree to this use of cookies and data.

Hourly Weather Sidi Bu-l-Abbas

Today, 7 August, Friday

Time Temperature Precipitation Wind Pressure Humidity
00:00 +27°C° 0 mm 1 mps 721 mmHg 37%
01:00 +26°C° 0 mm 2 mps 720 mmHg 45%
02:00 +25°C° 0 mm 2 mps 720 mmHg 54%
03:00 +24°C° 0 mm 3 mps 720 mmHg 62%
04:00 +25°C° 0 mm 2 mps 720 mmHg 61%
05:00 +25°C° 0 mm 2 mps 720 mmHg 60%
06:00 +26°C° 0 mm 2 mps 721 mmHg 55%
07:00 +28°C° 0 mm 2 mps 721 mmHg 46%
08:00 +31°C° 0 mm 2 mps 721 mmHg 36%
09:00 +34°C° 0 mm 2 mps 722 mmHg 26%
10:00 +36°C° 0 mm 3 mps 722 mmHg 23%
11:00 +37°C° 0 mm 3 mps 722 mmHg 19%
12:00 +40°C° 0 mm 4 mps 722 mmHg 16%
13:00 +40°C° 0 mm 4 mps 722 mmHg 16%
14:00 +40°C° 0 mm 5 mps 722 mmHg 16%
15:00 +41°C° 0 mm 6 mps 721 mmHg 17%
16:00 +39°C° 0 mm 5 mps 721 mmHg 18%
17:00 +37°C° 0 mm 5 mps 721 mmHg 20%
18:00 +35°C° 0 mm 5 mps 721 mmHg 21%
19:00 +33°C° 0 mm 3 mps 721 mmHg 26%
20:00 +30°C° 0 mm 2 mps 721 mmHg 31%
21:00 +26°C° 0 mm 0 mps 721 mmHg 36%
22:00 +25°C° 0 mm 0 mps 722 mmHg 38%
23:00 +25°C° 0 mm 0 mps 722 mmHg 40%

Tomorrow, 8 August, Saturday

Time Temperature Precipitation Wind Pressure Humidity
00:00 +24°C° 0 mm 0 mps 722 mmHg 41%
01:00 +26°C° 0 mm 1 mps 722 mmHg 44%
02:00 +25°C° 0 mm 1 mps 722 mmHg 47%
03:00 +25°C° 0 mm 2 mps 721 mmHg 50%
04:00 +25°C° 0 mm 1 mps 722 mmHg 52%
05:00 +25°C° 0 mm 1 mps 722 mmHg 53%
06:00 +25°C° 0 mm 1 mps 722 mmHg 55%
07:00 +27°C° 0 mm 1 mps 722 mmHg 45%
08:00 +30°C° 0 mm 1 mps 723 mmHg 35%
09:00 +33°C° 0 mm 1 mps 723 mmHg 25%
10:00 +36°C° 0 mm 2 mps 723 mmHg 20%
11:00 +38°C° 0 mm 3 mps 723 mmHg 16%
12:00 +40°C° 0 mm 3 mps 723 mmHg 12%
13:00 +41°C° 0 mm 4 mps 723 mmHg 14%
14:00 +41°C° 0 mm 5 mps 722 mmHg 15%
15:00 +42°C° 0 mm 6 mps 722 mmHg 16%
16:00 +40°C° 0 mm 5 mps 722 mmHg 19%
17:00 +39°C° 0 mm 5 mps 721 mmHg 21%
18:00 +37°C° 0 mm 5 mps 721 mmHg 23%
19:00 +35°C° 0 mm 4 mps 721 mmHg 24%
20:00 +33°C° 0 mm 3 mps 721 mmHg 26%
21:00 +31°C° 0 mm 2 mps 722 mmHg 27%
22:00 +30°C° 0 mm 2 mps 721 mmHg 28%
23:00 +30°C° 0 mm 2 mps 721 mmHg 29%

Day after tomorrow, 9 August, Sunday

Time Temperature Precipitation Wind Pressure Humidity
00:00 +29°C° 0 mm 1 mps 721 mmHg 30%
01:00 +28°C° 0 mm 1 mps 721 mmHg 36%
02:00 +27°C° 0 mm 1 mps 720 mmHg 42%
03:00 +26°C° 0 mm 1 mps 720 mmHg 48%
04:00 +26°C° 0 mm 1 mps 720 mmHg 46%
05:00 +27°C° 0 mm 1 mps 721 mmHg 43%
06:00 +27°C° 0 mm 1 mps 721 mmHg 41%
07:00 +30°C° 0 mm 1 mps 721 mmHg 32%
08:00 +33°C° 0 mm 1 mps 721 mmHg 24%
09:00 +36°C° 0 mm 1 mps 722 mmHg 15%
10:00 +38°C° 0 mm 2 mps 722 mmHg 14%
11:00 +40°C° 0 mm 2 mps 722 mmHg 13%
12:00 +41°C° 0 mm 2 mps 721 mmHg 12%
13:00 +43°C° 0 mm 3 mps 721 mmHg 12%
14:00 +43°C° 0 mm 3 mps 721 mmHg 11%
15:00 +43°C° 0 mm 4 mps 720 mmHg 11%
16:00 +42°C° 0 mm 4 mps 720 mmHg 13%
17:00 +41°C° 0 mm 5 mps 719 mmHg 14%
18:00 +40°C° 0 mm 6 mps 719 mmHg 15%
19:00 +37°C° 0 mm 4 mps 719 mmHg 18%
20:00 +35°C° 0 mm 3 mps 719 mmHg 21%
21:00 +32°C° 0 mm 2 mps 719 mmHg 23%
22:00 +31°C° 0 mm 2 mps 719 mmHg 26%
23:00 +30°C° 0 mm 1 mps 719 mmHg 28%

10 August, Monday

Time Temperature Precipitation Wind Pressure Humidity
00:00 +29°C° 0 mm 1 mps 719 mmHg 30%
01:00 +29°C° 0 mm 1 mps 718 mmHg 33%
02:00 +28°C° 0 mm 1 mps 718 mmHg 36%
03:00 +28°C° 0 mm 1 mps 718 mmHg 39%
04:00 +28°C° 0 mm 1 mps 718 mmHg 37%
05:00 +28°C° 0 mm 1 mps 718 mmHg 35%
06:00 +28°C° 0 mm 1 mps 718 mmHg 34%
07:00 +31°C° 0 mm 1 mps 719 mmHg 29%
08:00 +34°C° 0 mm 1 mps 719 mmHg 24%
09:00 +36°C° 0 mm 1 mps 719 mmHg 19%
10:00 +39°C° 0 mm 1 mps 719 mmHg 17%
11:00 +40°C° 0 mm 2 mps 719 mmHg 15%
12:00 +42°C° 0 mm 2 mps 719 mmHg 13%
13:00 +43°C° 0 mm 3 mps 719 mmHg 15%
14:00 +42°C° 0 mm 4 mps 718 mmHg 16%
15:00 +42°C° 0 mm 5 mps 718 mmHg 17%
16:00 +41°C° 0 mm 4 mps 717 mmHg 20%
17:00 +38°C° 0 mm 4 mps 717 mmHg 23%
18:00 +37°C° 0 mm 4 mps 717 mmHg 26%
19:00 +35°C° 0 mm 3 mps 717 mmHg 31%
20:00 +33°C° 0 mm 3 mps 718 mmHg 37%
21:00 +30°C° 0 mm 2 mps 718 mmHg 43%
22:00 +30°C° 0 mm 2 mps 718 mmHg 43%
23:00 +30°C° 0 mm 3 mps 719 mmHg 43%

11 August, Tuesday

Time Temperature Precipitation Wind Pressure Humidity
00:00 +30°C° 0 mm 3 mps 719 mmHg 43%
01:00 +29°C° 0 mm 2 mps 719 mmHg 46%
02:00 +28°C° 0 mm 2 mps 718 mmHg 49%
03:00 +27°C° 0 mm 2 mps 718 mmHg 53%
04:00 +28°C° 0 mm 1 mps 718 mmHg 51%
05:00 +28°C° 0 mm 1 mps 718 mmHg 49%
06:00 +28°C° 0 mm 1 mps 718 mmHg 47%
07:00 +30°C° 0 mm 1 mps 719 mmHg 41%
08:00 +32°C° 0 mm 1 mps 719 mmHg 35%
09:00 +34°C° 0 mm 1 mps 719 mmHg 29%
10:00 +37°C° 0 mm 2 mps 719 mmHg 25%
11:00 +39°C° 0 mm 3 mps 720 mmHg 20%
12:00 +42°C° 0 mm 4 mps 720 mmHg 16%
13:00 +42°C° 0 mm 5 mps 719 mmHg 16%
14:00 +42°C° 0 mm 6 mps 719 mmHg 16%
15:00 +43°C° 0 mm 7 mps 719 mmHg 16%
16:00 +41°C° 0 mm 6 mps 719 mmHg 19%
17:00 +40°C° 0 mm 5 mps 719 mmHg 22%
18:00 +38°C° 0 mm 3 mps 719 mmHg 25%
19:00 +36°C° 0 mm 3 mps 719 mmHg 30%
20:00 +34°C° 0 mm 2 mps 719 mmHg 34%
21:00 +31°C° 0 mm 1 mps 720 mmHg 39%
22:00 +31°C° 0 mm 1 mps 719 mmHg 42%
23:00 +30°C° 0 mm 1 mps 719 mmHg 45%

12 August, Wednesday

Time Temperature Precipitation Wind Pressure Humidity
00:00 +29°C° 0 mm 1 mps 719 mmHg 48%
01:00 +28°C° 0 mm 1 mps 718 mmHg 51%
02:00 +27°C° 0 mm 1 mps 718 mmHg 55%
03:00 +27°C° 0 mm 1 mps 718 mmHg 58%
04:00 +27°C° 0 mm 1 mps 718 mmHg 58%
05:00 +27°C° 0 mm 1 mps 718 mmHg 57%
06:00 +27°C° 0 mm 1 mps 719 mmHg 56%
07:00 +29°C° 0 mm 1 mps 719 mmHg 49%
08:00 +31°C° 0 mm 1 mps 719 mmHg 42%
09:00 +33°C° 0 mm 1 mps 720 mmHg 35%
10:00 +36°C° 0 mm 3 mps 720 mmHg 32%
11:00 +37°C° 0 mm 4 mps 720 mmHg 29%
12:00 +40°C° 0 mm 5 mps 720 mmHg 26%
13:00 +40°C° 0 mm 5 mps 720 mmHg 26%
14:00 +40°C° 0 mm 4 mps 719 mmHg 26%
15:00 +40°C° 0 mm 4 mps 719 mmHg 26%
16:00 +38°C° 0 mm 4 mps 719 mmHg 28%
17:00 +37°C° 0 mm 4 mps 719 mmHg 31%
18:00 +36°C° 0 mm 3 mps 719 mmHg 33%
19:00 +34°C° 0 mm 2 mps 719 mmHg 39%
20:00 +31°C° 0 mm 2 mps 720 mmHg 44%
21:00 +30°C° 0 mm 1 mps 720 mmHg 50%
22:00 +29°C° 0 mm 1 mps 720 mmHg 49%
23:00 +29°C° 0 mm 1 mps 720 mmHg 49%
Show more